AUTCUBE 2 (43681 NORAD) Tracking and Keplerian Element Data

This shows tracking and keplerian element data for the satellite.

Feedback or suggestion? Click here.




ElementValue
Catalog43681
NameAUTCUBE 2
Epoch Orbit38967
Epoch Day352.50872145
Epoch Year2025
RAAN184.1465
Inclination98.0782
Eccentricity0.0008275
Argument of Perigee299.1773
Mean Anonmoly60.8626
Mean Motion15.08361955
Decay Rate3.596E-05
L11 43681U 18084K 25352.50872145 .00003596 00000+0 23585-3 0 9990
L22 43681 98.0782 184.1465 0008275 299.1773 60.8626 15.08361955389671



Live tracking and technical data element details for AUTCUBE 2 (NORAD 43681). AUTCUBE 2 can be tracked NOW for your location showing map with azimuth and elevation plus other details from your city location.







IsCatalogInMostPopularTable: catalog: 43681, numindb: 352
Update: records affected: 1



GetName: 43681 AUTCUBE 2

Hit Count: updated at: Sat, 14 Mar 2026 02:29:59 GMT